EIN1LK EGLL-EIDW

Flight info

Callsign EIN1LK
Flight time 0h 56m
Altitude 32000
Route CPT L9 DIDZA N14 BIBPE DCT OKTAD DCT MEDOG DCT KRAGY DCT PEMOB DCT LEMGU M17 VATRY VATRY4L
Aircraft A320/M-SDE3FGHIRWY/LB1

Departure

Time 2026-05-04 07:16
Airport London Heathrow Airport (EGLL)

Arrival

Time 2026-05-04 08:12
Airport Dublin Airport (EIDW)
Time Latitude Longitude Altitude Speed Heading
2026-05-04 06:38 51.47048 -0.48586 87 ft 0 kts 271°
2026-05-04 07:01 51.47063 -0.48495 87 ft 4 kts 229°
2026-05-04 07:01 51.47084 -0.48475 87 ft 3 kts 182°
2026-05-04 07:02 51.47092 -0.48475 87 ft 0 kts 180°
2026-05-04 07:06 51.47088 -0.48475 87 ft 3 kts 180°
2026-05-04 07:06 51.47047 -0.48474 90 ft 9 kts 180°
2026-05-04 07:07 51.46960 -0.48474 87 ft 15 kts 180°
2026-05-04 07:08 51.46744 -0.47797 88 ft 15 kts 90°
2026-05-04 07:09 51.46744 -0.47619 87 ft 17 kts 89°
2026-05-04 07:09 51.46745 -0.47421 87 ft 19 kts 89°
2026-05-04 07:09 51.46746 -0.47208 87 ft 20 kts 90°
2026-05-04 07:09 51.46747 -0.46993 91 ft 18 kts 89°
2026-05-04 07:10 51.46747 -0.46801 87 ft 18 kts 90°
2026-05-04 07:10 51.46747 -0.46589 88 ft 20 kts 89°
2026-05-04 07:12 51.46751 -0.45026 88 ft 21 kts 89°
2026-05-04 07:12 51.46752 -0.44806 87 ft 18 kts 90°
2026-05-04 07:12 51.46751 -0.44617 89 ft 17 kts 89°
2026-05-04 07:12 51.46753 -0.44419 87 ft 19 kts 89°
2026-05-04 07:13 51.46754 -0.44202 87 ft 19 kts 89°
2026-05-04 07:13 51.46769 -0.44004 87 ft 17 kts 83°
2026-05-04 07:13 51.46770 -0.43831 87 ft 14 kts 89°
2026-05-04 07:14 51.46521 -0.43614 88 ft 12 kts 198°
2026-05-04 07:14 51.46492 -0.43697 89 ft 7 kts 271°
2026-05-04 07:15 51.46492 -0.43756 90 ft 6 kts 270°
2026-05-04 07:15 51.46492 -0.44136 88 ft 70 kts 270°
2026-05-04 07:15 51.46494 -0.45253 88 ft 128 kts 270°
2026-05-04 07:15 51.46480 -0.46940 140 ft 167 kts 268°
2026-05-04 07:16 51.46450 -0.48798 718 ft 169 kts 268°
2026-05-04 07:16 51.46431 -0.50758 1217 ft 182 kts 270°
2026-05-04 07:16 51.46411 -0.52887 1599 ft 201 kts 270°
2026-05-04 07:16 51.46387 -0.55249 1982 ft 218 kts 270°
2026-05-04 07:17 51.46361 -0.57704 2691 ft 222 kts 270°
2026-05-04 07:17 51.46331 -0.60280 3138 ft 242 kts 270°
2026-05-04 07:17 51.46167 -0.63054 3711 ft 255 kts 257°
2026-05-04 07:17 51.45759 -0.65856 4538 ft 260 kts 256°
2026-05-04 07:18 51.45486 -0.68681 5386 ft 262 kts 268°
2026-05-04 07:18 51.45435 -0.71610 6252 ft 264 kts 268°
2026-05-04 07:18 51.45400 -0.74570 7073 ft 267 kts 268°
2026-05-04 07:18 51.45371 -0.77568 7886 ft 270 kts 268°
2026-05-04 07:19 51.45344 -0.80598 8710 ft 273 kts 268°
2026-05-04 07:19 51.45314 -0.83677 9381 ft 282 kts 268°
2026-05-04 07:19 51.45283 -0.86855 10076 ft 288 kts 269°
2026-05-04 07:19 51.45509 -0.90083 10640 ft 301 kts 278°
2026-05-04 07:20 51.45892 -0.93511 10869 ft 324 kts 279°
2026-05-04 07:20 51.46313 -0.97176 11167 ft 342 kts 279°
2026-05-04 07:20 51.46754 -1.00960 11790 ft 348 kts 279°
2026-05-04 07:20 51.47201 -1.04797 12490 ft 351 kts 279°
2026-05-04 07:22 51.54390 -1.29875 16924 ft 381 kts 314°
2026-05-04 07:22 51.56330 -1.32802 17497 ft 384 kts 314°
2026-05-04 07:23 51.58287 -1.35764 18055 ft 387 kts 314°
2026-05-04 07:23 51.60179 -1.38856 18599 ft 389 kts 308°
2026-05-04 07:23 51.61736 -1.42408 19134 ft 389 kts 297°
2026-05-04 07:23 51.63023 -1.46257 19674 ft 392 kts 295°
2026-05-04 07:24 51.64304 -1.50133 20197 ft 394 kts 295°
2026-05-04 07:24 51.65601 -1.54050 20717 ft 398 kts 296°
2026-05-04 07:24 51.66909 -1.57993 21219 ft 400 kts 296°
2026-05-04 07:24 51.68229 -1.61961 21695 ft 403 kts 296°
2026-05-04 07:25 51.69514 -1.65991 22165 ft 405 kts 291°
2026-05-04 07:26 51.73455 -1.97365 25018 ft 419 kts 281°
2026-05-04 07:27 51.74135 -2.01947 25380 ft 421 kts 281°
2026-05-04 07:27 51.74811 -2.06555 25732 ft 423 kts 281°
2026-05-04 07:27 51.75488 -2.11188 26081 ft 425 kts 281°
2026-05-04 07:27 51.76169 -2.15840 26418 ft 427 kts 281°
2026-05-04 07:28 51.76854 -2.20514 26738 ft 429 kts 281°
2026-05-04 07:28 51.77541 -2.25213 27051 ft 431 kts 281°
2026-05-04 07:28 51.78231 -2.29939 27361 ft 433 kts 281°
2026-05-04 07:28 51.78920 -2.34684 27660 ft 435 kts 280°
2026-05-04 07:29 51.79607 -2.39453 27957 ft 437 kts 280°
2026-05-04 07:29 51.80299 -2.44253 28245 ft 439 kts 280°
2026-05-04 07:29 51.80989 -2.49063 28511 ft 441 kts 280°
2026-05-04 07:29 51.81682 -2.53898 28765 ft 442 kts 280°
2026-05-04 07:30 51.82359 -2.58687 29018 ft 444 kts 280°
2026-05-04 07:30 51.83031 -2.63565 29257 ft 446 kts 279°
2026-05-04 07:30 51.83702 -2.68532 29492 ft 447 kts 279°
2026-05-04 07:30 51.84351 -2.73392 29715 ft 449 kts 279°
2026-05-04 07:31 51.85012 -2.78339 29929 ft 451 kts 279°
2026-05-04 07:31 51.85677 -2.83310 30166 ft 452 kts 279°
2026-05-04 07:33 51.90280 -3.18075 31972 ft 452 kts 279°
2026-05-04 07:33 51.90927 -3.23036 32018 ft 449 kts 280°
2026-05-04 07:33 51.92214 -3.32914 32008 ft 448 kts 280°
2026-05-04 07:34 51.93488 -3.42808 31997 ft 449 kts 280°
2026-05-04 07:34 51.94751 -3.52716 31999 ft 449 kts 280°
2026-05-04 07:35 51.96013 -3.62639 32001 ft 450 kts 280°
2026-05-04 07:35 51.97268 -3.72568 31995 ft 449 kts 280°
2026-05-04 07:36 51.98522 -3.82491 31985 ft 449 kts 280°
2026-05-04 07:38 52.03408 -4.22238 31983 ft 449 kts 280°
2026-05-04 07:38 52.04611 -4.32205 31987 ft 450 kts 280°
2026-05-04 07:39 52.05808 -4.42192 31990 ft 450 kts 280°
2026-05-04 07:39 52.06991 -4.52198 31989 ft 451 kts 280°
2026-05-04 07:40 52.08172 -4.62213 31989 ft 451 kts 280°
2026-05-04 07:40 52.09352 -4.72243 31988 ft 452 kts 281°
2026-05-04 07:41 52.10511 -4.82241 31984 ft 454 kts 281°
2026-05-04 07:41 52.11674 -4.92362 31987 ft 456 kts 281°
2026-05-04 07:42 52.12832 -5.02524 31986 ft 458 kts 281°
2026-05-04 07:42 52.14952 -5.12207 31990 ft 456 kts 303°
2026-05-04 07:43 52.16848 -5.16314 31994 ft 453 kts 315°
2026-05-04 07:43 52.19197 -5.19715 31997 ft 451 kts 326°
2026-05-04 07:43 52.24692 -5.24570 32003 ft 450 kts 335°
2026-05-04 07:44 52.30298 -5.29155 32011 ft 451 kts 335°
2026-05-04 07:44 52.35895 -5.33774 32018 ft 451 kts 335°
2026-05-04 07:45 52.41487 -5.38404 32024 ft 450 kts 335°
2026-05-04 07:45 52.47086 -5.43034 32025 ft 451 kts 335°
2026-05-04 07:46 52.52679 -5.47678 32032 ft 450 kts 335°
2026-05-04 07:46 52.58407 -5.51520 32040 ft 447 kts 344°
2026-05-04 07:47 52.64350 -5.54568 32047 ft 447 kts 345°
2026-05-04 07:49 52.88033 -5.66851 28667 ft 449 kts 345°
2026-05-04 07:49 52.90983 -5.68401 27664 ft 438 kts 345°
2026-05-04 07:49 52.93800 -5.69888 27447 ft 411 kts 345°
2026-05-04 07:50 52.96430 -5.71278 27305 ft 385 kts 345°
2026-05-04 07:50 52.98934 -5.72602 26834 ft 371 kts 345°
2026-05-04 07:50 53.01371 -5.73885 26167 ft 364 kts 345°
2026-05-04 07:50 53.03772 -5.75147 25427 ft 359 kts 345°
2026-05-04 07:51 53.06144 -5.76396 24659 ft 355 kts 345°
2026-05-04 07:51 53.08439 -5.77608 24216 ft 342 kts 345°
2026-05-04 07:51 53.10643 -5.78779 23965 ft 324 kts 345°
2026-05-04 07:51 53.12752 -5.79900 23717 ft 313 kts 345°
2026-05-04 07:52 53.14823 -5.80911 23461 ft 307 kts 354°
2026-05-04 07:52 53.16917 -5.80896 23212 ft 299 kts 15°
2026-05-04 07:52 53.18821 -5.79636 22940 ft 294 kts 35°
2026-05-04 07:52 53.20333 -5.77358 22603 ft 301 kts 53°
2026-05-04 07:53 53.21321 -5.74194 22038 ft 315 kts 73°
2026-05-04 07:54 53.10846 -5.58408 16865 ft 319 kts 159°
2026-05-04 07:55 53.08717 -5.57459 16251 ft 316 kts 174°
2026-05-04 07:55 53.06539 -5.57716 15644 ft 314 kts 195°
2026-05-04 07:55 53.04577 -5.59253 15164 ft 314 kts 217°
2026-05-04 07:55 53.03071 -5.61856 14915 ft 313 kts 238°
2026-05-04 07:56 53.02216 -5.65156 14665 ft 312 kts 259°
2026-05-04 07:56 53.02128 -5.68729 14414 ft 310 kts 280°
2026-05-04 07:56 53.02786 -5.72049 14191 ft 306 kts 301°
2026-05-04 07:56 53.04106 -5.74788 14189 ft 305 kts 321°
2026-05-04 07:57 53.05907 -5.76618 14167 ft 305 kts 340°
2026-05-04 07:57 53.07936 -5.77624 13976 ft 304 kts 346°
2026-05-04 07:57 53.09946 -5.78666 13761 ft 303 kts 338°
2026-05-04 07:57 53.11804 -5.80303 13544 ft 303 kts 327°
2026-05-04 07:58 53.13435 -5.82539 13287 ft 314 kts 316°
2026-05-04 07:58 53.14875 -5.85520 12767 ft 341 kts 303°
2026-05-04 07:58 53.15931 -5.89077 12283 ft 345 kts 294°
2026-05-04 07:58 53.16875 -5.92745 11785 ft 343 kts 294°
2026-05-04 07:59 53.17819 -5.96389 11274 ft 342 kts 294°
2026-05-04 07:59 53.18763 -6.00007 10779 ft 339 kts 294°
2026-05-04 07:59 53.19694 -6.03579 10539 ft 329 kts 295°
2026-05-04 07:59 53.20584 -6.07013 10408 ft 316 kts 294°
2026-05-04 08:00 53.21436 -6.10316 10291 ft 304 kts 294°
2026-05-04 08:00 53.22250 -6.13490 10289 ft 294 kts 294°
2026-05-04 08:00 53.23038 -6.16562 10283 ft 281 kts 294°
2026-05-04 08:02 53.27787 -6.35057 9419 ft 254 kts 295°
2026-05-04 08:02 53.28480 -6.37774 9294 ft 254 kts 295°
2026-05-04 08:02 53.29170 -6.40487 9169 ft 253 kts 295°
2026-05-04 08:03 53.29860 -6.43192 9046 ft 253 kts 295°
2026-05-04 08:03 53.30549 -6.45890 8919 ft 252 kts 295°
2026-05-04 08:03 53.31236 -6.48587 8792 ft 252 kts 294°
2026-05-04 08:03 53.31921 -6.51290 8551 ft 253 kts 294°
2026-05-04 08:04 53.32597 -6.53958 8184 ft 252 kts 294°
2026-05-04 08:04 53.33282 -6.56662 7798 ft 253 kts 294°
2026-05-04 08:04 53.33965 -6.59353 7397 ft 249 kts 294°
2026-05-04 08:04 53.34629 -6.61973 7024 ft 241 kts 294°
2026-05-04 08:05 53.35291 -6.64516 6648 ft 235 kts 300°
2026-05-04 08:05 53.36249 -6.66682 6282 ft 231 kts 318°
2026-05-04 08:05 53.37562 -6.68220 5915 ft 231 kts 336°
2026-05-04 08:05 53.39103 -6.68981 5509 ft 232 kts 355°
2026-05-04 08:06 53.40718 -6.68924 5121 ft 234 kts
2026-05-04 08:06 53.42304 -6.68673 5009 ft 223 kts
2026-05-04 08:06 53.43794 -6.68278 4905 ft 211 kts 22°
2026-05-04 08:06 53.44952 -6.66929 4824 ft 199 kts 51°
2026-05-04 08:08 53.44968 -6.51526 2976 ft 182 kts 92°
2026-05-04 08:08 53.44858 -6.49425 2736 ft 181 kts 92°
2026-05-04 08:10 53.44039 -6.34050 983 ft 141 kts 92°
2026-05-04 08:11 53.43945 -6.32424 799 ft 140 kts 92°
2026-05-04 08:11 53.43776 -6.29164 393 ft 141 kts 93°
2026-05-04 08:11 53.43685 -6.27541 220 ft 138 kts 93°
2026-05-04 08:12 53.43610 -6.26117 210 ft 99 kts 94°
2026-05-04 08:12 53.43562 -6.25364 210 ft 29 kts 109°
2026-05-04 08:12 53.43505 -6.25170 211 ft 18 kts 116°
2026-05-04 08:12 53.43437 -6.25000 211 ft 17 kts 150°
2026-05-04 08:13 53.43383 -6.25111 211 ft 14 kts 271°
2026-05-04 08:13 53.43391 -6.25281 211 ft 15 kts 276°
2026-05-04 08:13 53.43402 -6.25462 211 ft 16 kts 275°
2026-05-04 08:13 53.43409 -6.25662 211 ft 18 kts 264°
2026-05-04 08:14 53.43346 -6.25654 213 ft 10 kts 152°
2026-05-04 08:14 53.43286 -6.25601 216 ft 12 kts 154°
2026-05-04 08:14 53.43163 -6.25510 214 ft 22 kts 156°
2026-05-04 08:16 53.42422 -6.24636 211 ft 18 kts 61°
2026-05-04 08:16 53.42461 -6.24508 211 ft 12 kts 57°
2026-05-04 08:16 53.42499 -6.24422 211 ft 7 kts 77°
2026-05-04 08:17 53.42478 -6.24364 211 ft 5 kts 134°
2026-05-04 08:17 53.42464 -6.24340 211 ft 0 kts 135°